KA8DUX-2 Weather Reports


Display with metric or nautical units.
time (UTC)temp
F
wind
direction
speed
MPH
gust
MPH
rain 1hr
in
rain 24hr
in
rain mn
in
humidity
%
barometer
mb
20260905085057 69 123 1.0 2.0 0.00 0.00 0.00 99 1012.4
20260905084555 69 131 3.0 3.0 0.00 0.00 0.00 99 1012.7
20260905084051 70 150 0.0 0.0 0.00 0.00 0.00 99 1012.5
20260905083545 70 129 0.0 0.0 0.00 0.00 0.00 99 1012.3
20260905083042 70 132 0.0 0.0 0.00 0.00 0.00 99 1012.3
20260905082537 70 92 1.0 1.0 0.00 0.00 0.00 99 1012.2
20260905082033 70 101 1.0 1.0 0.00 0.00 0.00 99 1012.2
20260905081532 70 311 0.0 2.0 0.00 0.00 0.00 99 1012.2
20260905081027 70 150 0.0 0.0 0.00 0.00 0.00 99 1012.1
20260905080526 70 3 4.0 7.0 0.00 0.00 0.00 99 1012.1
20260905080022 70 142 0.0 0.0 0.00 0.00 0.00 99 1012.1
20260905075520 70 25 3.0 3.0 0.00 0.00 0.00 99 1012.4
20260905075015 70 97 0.0 0.0 0.00 0.00 0.00 99 1012.1
20260905074510 70 101 0.0 0.0 0.00 0.00 0.00 99 1012.0
20260905074006 70 41 0.0 1.0 0.00 0.00 0.00 99 1011.9
20260905073500 70 123 0.0 0.0 0.00 0.00 0.00 99 1012.2
20260905072955 70 106 0.0 1.0 0.00 0.00 0.00 99 1012.0
20260905072450 70 91 1.0 1.0 0.00 0.00 0.00 99 1012.0
20260905071946 69 90 1.0 1.0 0.00 0.00 0.00 99 1012.0
20260905071443 69 125 0.0 0.0 0.00 0.00 0.00 99 1012.1
20260905070942 69 131 0.0 0.0 0.00 0.00 0.00 99 1012.3
20260905070438 69 121 0.0 0.0 0.00 0.00 0.00 99 1012.5
20260905065938 69 119 0.0 0.0 0.00 0.00 0.00 99 1012.5
20260905065436 69 130 0.0 0.0 0.00 0.00 0.00 99 1012.7
20260905064931 69 143 0.0 0.0 0.00 0.00 0.00 99 1012.7
20260905064426 69 130 0.0 0.0 0.00 0.00 0.00 99 1012.6
20260905063921 69 128 0.0 0.0 0.00 0.00 0.00 99 1012.6
20260905063416 69 131 0.0 0.0 0.00 0.00 0.00 99 1012.3
20260905062912 69 123 0.0 0.0 0.00 0.00 0.00 99 1012.6
20260905062406 69 111 0.0 0.0 0.00 0.00 0.00 99 1012.2
20260905061901 69 99 0.0 0.0 0.00 0.00 0.00 99 1012.3
20260905061355 69 125 0.0 0.0 0.00 0.00 0.00 99 1012.2
20260905060849 69 131 0.0 0.0 0.00 0.00 0.00 99 1012.2
20260905060346 69 111 0.0 0.0 0.00 0.00 0.00 99 1012.4
20260905055845 69 124 0.0 0.0 0.00 0.00 0.00 99 1012.1
20260905055341 69 120 0.0 0.0 0.00 0.00 0.00 99 1012.4
20260905054839 69 117 0.0 0.0 0.00 0.00 0.00 99 1012.2
20260905054336 70 125 0.0 0.0 0.00 0.00 0.00 99 1012.4
20260905053835 70 188 0.0 0.0 0.00 0.00 0.00 99 1012.4
20260905053330 70 117 0.0 0.0 0.00 0.00 0.00 99 1012.8
20260905052825 70 125 0.0 0.0 0.00 0.00 0.00 99 1012.7
20260905052325 70 125 0.0 0.0 0.00 0.00 0.00 99 1012.8
20260905051824 70 130 0.0 0.0 0.00 0.00 0.00 99 1012.7
20260905051321 70 126 0.0 0.0 0.00 0.00 0.00 99 1012.9
20260905050818 70 124 0.0 0.0 0.00 0.00 0.00 99 1012.8
20260905050313 70 127 0.0 0.0 0.00 0.00 0.00 99 1012.5
20260905045809 70 125 0.0 0.0 0.00 0.00 0.00 99 1012.8
20260905045305 70 124 0.0 0.0 0.00 0.00 0.00 99 1012.8
20260905044759 70 111 0.0 0.0 0.00 0.00 0.00 99 1012.7
20260905044254 70 132 0.0 0.0 0.00 0.00 0.00 99 1012.5
20260905043752 70 131 0.0 0.0 0.00 0.00 0.00 99 1012.3
20260905043248 70 136 0.0 0.0 0.00 0.00 0.00 99 1012.6
20260905042742 70 127 0.0 0.0 0.00 0.00 0.00 99 1012.6
20260905042242 70 124 0.0 0.0 0.00 0.00 0.00 99 1012.5
20260905041737 70 122 0.0 0.0 0.00 0.00 0.00 99 1012.6
20260905041233 70 113 0.0 0.0 0.00 0.00 0.00 99 1012.4
20260905040728 70 125 0.0 0.0 0.00 0.00 0.00 99 1012.6
20260905040227 70 133 0.0 0.0 0.00 0.00 0.00 99 1012.6
20260905035726 70 133 0.0 0.0 0.00 0.87 0.87 99 1012.6
20260905035223 71 123 0.0 0.0 0.00 0.87 0.87 99 1012.6
20260905034719 71 122 0.0 0.0 0.00 0.87 0.87 99 1012.5
20260905034219 71 125 0.0 0.0 0.00 0.87 0.87 99 1012.7
20260905033718 71 129 0.0 0.0 0.00 0.87 0.87 99 1012.8
20260905033213 71 130 0.0 0.0 0.00 0.87 0.87 99 1013.1
20260905032713 71 127 0.0 0.0 0.00 0.87 0.87 99 1013.2
20260905032208 71 122 0.0 0.0 0.00 0.87 0.87 99 1013.3
20260905031704 71 127 0.0 0.0 0.00 0.87 0.87 99 1013.3
20260905031159 71 134 0.0 0.0 0.00 0.87 0.87 99 1013.5
20260905030654 71 130 0.0 0.0 0.00 0.87 0.87 99 1013.5
20260905030149 71 147 0.0 0.0 0.00 0.87 0.87 99 1013.5
20260905025643 71 144 0.0 0.0 0.00 0.87 0.87 98 1013.4
20260905025140 71 121 0.0 0.0 0.00 0.87 0.87 98 1013.5
20260905024635 71 127 0.0 0.0 0.00 0.87 0.87 98 1013.8
20260905024131 71 138 0.0 0.0 0.00 0.87 0.87 98 1013.4
20260905023626 71 123 0.0 0.0 0.00 0.87 0.87 98 1013.5
20260905023125 72 123 0.0 0.0 0.00 0.87 0.87 98 1013.6
20260905022624 72 127 0.0 0.0 0.00 0.87 0.87 98 1013.5
20260905022120 72 150 0.0 0.0 0.00 0.87 0.87 97 1013.4
20260905021614 72 130 0.0 0.0 0.00 0.87 0.87 97 1013.4
20260905021110 72 146 0.0 0.0 0.00 0.87 0.87 97 1013.3
20260905020609 72 137 0.0 0.0 0.00 0.87 0.87 97 1013.3
20260905020105 72 125 0.0 0.0 0.00 0.87 0.87 97 1013.4
20260905015603 72 121 0.0 0.0 0.00 0.87 0.87 97 1013.4
20260905015057 72 113 0.0 0.0 0.00 0.87 0.87 97 1013.3
20260905014552 72 123 0.0 0.0 0.00 0.87 0.87 97 1013.2
20260905014048 72 125 0.0 0.0 0.00 0.87 0.87 97 1013.3
20260905013544 73 124 0.0 0.0 0.00 0.87 0.87 97 1013.3
20260905013039 73 133 0.0 0.0 0.00 0.87 0.87 97 1013.4
20260905012538 73 124 0.0 0.0 0.00 0.87 0.87 96 1013.5
20260905012036 73 132 0.0 0.0 0.00 0.87 0.87 96 1013.5
20260905011532 73 131 0.0 0.0 0.00 0.87 0.87 96 1013.3
20260905011027 73 132 0.0 0.0 0.00 0.87 0.87 96 1013.4
20260905010521 73 125 0.0 0.0 0.00 0.87 0.87 96 1013.1
20260905010018 73 133 0.0 0.0 0.00 0.87 0.87 96 1013.1
20260905005513 73 132 0.0 0.0 0.00 0.87 0.87 95 1013.2
20260905005009 73 130 0.0 0.0 0.00 0.87 0.87 95 1012.9
20260905004509 73 128 0.0 0.0 0.00 0.87 0.87 95 1013.1
20260905004004 74 133 0.0 0.0 0.00 0.87 0.87 94 1013.0
20260905003500 74 119 0.0 0.0 0.00 0.87 0.87 94 1013.0
20260905002955 74 127 0.0 0.0 0.00 0.87 0.87 94 1012.9
20260905002450 74 126 0.0 0.0 0.00 0.87 0.87 94 1013.0
20260905001943 75 125 0.0 0.0 0.00 0.87 0.87 93 1012.8
20260905001439 75 128 0.0 0.0 0.00 0.87 0.87 93 1012.8
20260905000932 75 129 0.0 0.0 0.00 0.87 0.87 93 1012.7
20260905000424 75 122 0.0 0.0 0.00 0.87 0.87 93 1012.6
20260904235919 75 129 0.0 0.0 0.00 0.87 0.87 92 1012.8
20260904235414 75 131 0.0 0.0 0.00 0.87 0.87 92 1012.8
20260904234914 75 143 0.0 0.0 0.00 0.87 0.87 93 1012.6
20260904234408 75 133 0.0 0.0 0.00 0.87 0.87 93 1012.7
20260904233904 76 130 0.0 0.0 0.00 0.87 0.87 92 1012.8
20260904233359 76 128 0.0 0.0 0.00 0.87 0.87 92 1012.8
20260904232856 76 125 0.0 0.0 0.00 0.87 0.87 91 1012.9
20260904232352 76 127 0.0 0.0 0.00 0.87 0.87 91 1012.7
20260904231848 77 138 0.0 0.0 0.00 0.87 0.87 90 1013.0
20260904231343 77 125 0.0 0.0 0.00 0.87 0.87 90 1012.9
20260904230838 77 117 0.0 0.0 0.00 0.87 0.87 89 1012.9
20260904230336 77 145 0.0 0.0 0.00 0.87 0.87 89 1012.9
20260904225832 78 125 0.0 0.0 0.00 0.87 0.87 89 1012.7
20260904225329 78 122 0.0 0.0 0.00 0.87 0.87 88 1012.9
20260904224824 78 134 0.0 0.0 0.00 0.87 0.87 89 1012.9
20260904224320 77 90 1.0 1.0 0.00 0.87 0.87 89 1012.7
20260904223818 77 124 0.0 0.0 0.00 0.87 0.87 89 1012.8
20260904223313 77 127 0.0 0.0 0.00 0.87 0.87 89 1012.7
20260904222810 78 117 0.0 0.0 0.00 0.87 0.87 88 1012.9
20260904222306 79 105 1.0 1.0 0.00 0.87 0.87 85 1012.7
20260904221759 78 157 0.0 1.0 0.00 0.87 0.87 87 1012.5
20260904221259 77 154 0.0 0.0 0.00 0.87 0.87 88 1012.5
20260904220754 77 101 0.0 0.0 0.00 0.87 0.87 89 1012.7
20260904220253 77 121 0.0 0.0 0.00 0.87 0.87 88 1012.4
20260904215749 78 138 1.0 1.0 0.00 0.87 0.87 87 1012.3
20260904215244 78 148 1.0 1.0 0.00 0.87 0.87 87 1012.2
20260904214739 78 150 0.0 0.0 0.00 0.87 0.87 89 1012.3
20260904214235 77 319 3.0 3.0 0.00 0.87 0.87 88 1012.2
20260904213733 77 111 0.0 0.0 0.00 0.87 0.87 88 1012.5
20260904213230 77 126 0.0 0.0 0.00 0.87 0.87 89 1012.2
20260904212725 77 118 0.0 0.0 0.00 0.87 0.87 90 1012.3
20260904212220 77 125 0.0 0.0 0.00 0.87 0.87 91 1012.3
20260904211720 77 84 1.0 1.0 0.00 0.87 0.87 91 1012.5
20260904211214 76 135 0.0 1.0 0.00 0.87 0.87 91 1012.5
20260904210709 76 108 0.0 0.0 0.00 0.87 0.87 91 1012.4
20260904210204 77 125 0.0 0.0 0.00 0.87 0.87 91 1012.4
20260904205700 77 127 0.0 1.0 0.00 0.87 0.87 90 1012.4
20260904205156 77 227 2.0 2.0 0.00 0.87 0.87 90 1012.2
20260904204652 77 122 0.0 0.0 0.00 0.87 0.87 91 1012.4
20260904204148 77 107 0.0 0.0 0.00 0.87 0.87 90 1012.4
20260904203643 77 126 0.0 0.0 0.00 0.87 0.87 91 1012.6
20260904203140 77 136 0.0 0.0 0.00 0.87 0.87 91 1012.4
20260904202635 76 120 0.0 0.0 0.00 0.87 0.87 91 1012.8
20260904202132 76 128 1.0 1.0 0.00 0.87 0.87 92 1012.5
20260904201626 76 344 2.0 2.0 0.00 0.87 0.87 91 1012.8
20260904201121 76 7 3.0 3.0 0.00 0.87 0.87 91 1012.9
20260904200621 77 113 0.0 0.0 0.00 0.87 0.87 92 1012.8
20260904200116 76 73 1.0 1.0 0.00 0.87 0.87 92 1012.6
20260904195614 76 101 1.0 1.0 0.00 0.87 0.87 94 1012.7
20260904195108 76 153 0.0 0.0 0.00 0.87 0.87 95 1012.7
20260904194608 75 128 1.0 1.0 0.00 0.87 0.87 96 1012.7
20260904194103 74 133 0.0 0.0 0.00 0.87 0.87 96 1012.8
20260904193557 74 123 0.0 0.0 0.00 0.87 0.87 98 1012.7
20260904193054 73 130 0.0 0.0 0.00 0.87 0.87 99 1013.0
20260904192553 74 177 0.0 0.0 0.00 0.87 0.87 99 1013.2
20260904192049 73 132 0.0 0.0 0.00 0.87 0.87 99 1013.2
20260904191546 73 126 0.0 0.0 0.00 0.87 0.87 99 1013.0
20260904191042 72 125 0.0 0.0 0.00 0.87 0.87 99 1013.2
20260904190537 72 125 1.0 1.0 0.00 0.87 0.87 99 1013.4
20260904190034 73 171 0.0 0.0 0.00 0.87 0.87 99 1013.5
20260904185530 73 139 0.0 1.0 0.00 0.87 0.87 99 1013.3
20260904185024 72 125 0.0 0.0 0.00 0.87 0.87 99 1013.2
20260904184519 72 167 1.0 1.0 0.00 0.87 0.87 99 1013.5
20260904184014 73 143 1.0 2.0 0.00 0.87 0.87 99 1013.6
20260904183509 73 135 0.0 0.0 0.00 0.87 0.87 99 1013.4
20260904183004 72 148 0.0 0.0 0.00 0.87 0.87 99 1013.2
20260904182459 72 132 0.0 0.0 0.00 0.87 0.87 99 1013.3
20260904181954 72 140 0.0 0.0 0.00 0.87 0.87 99 1013.4
20260904181449 72 127 0.0 0.0 0.00 0.87 0.87 99 1013.1
20260904180944 72 123 0.0 0.0 0.00 0.87 0.87 99 1013.2
20260904180439 71 132 0.0 0.0 0.00 0.87 0.87 99 1013.3
20260904175938 71 131 0.0 0.0 0.00 0.87 0.87 99 1013.4
20260904175437 72 137 0.0 0.0 0.00 0.87 0.87 99 1013.4
20260904174932 72 120 0.0 0.0 0.00 0.87 0.87 99 1013.3
20260904174427 71 127 0.0 0.0 0.00 0.87 0.87 99 1013.3
20260904173924 71 129 0.0 0.0 0.00 0.87 0.87 99 1013.1
20260904173419 70 126 0.0 0.0 0.00 0.87 0.87 99 1013.3
20260904172914 71 126 0.0 0.0 0.00 0.87 0.87 99 1013.8
20260904172408 71 140 0.0 0.0 0.00 0.87 0.87 99 1013.7
20260904171903 71 168 0.0 0.0 0.00 0.87 0.87 99 1013.5
20260904171358 70 144 0.0 0.0 0.00 0.87 0.87 99 1013.5
20260904170855 70 161 0.0 0.0 0.00 0.87 0.87 99 1013.0
20260904170350 70 126 0.0 0.0 0.00 0.87 0.87 99 1012.6
20260904165845 70 128 0.0 0.0 0.00 0.87 0.87 99 1012.5
20260904165344 69 128 0.0 0.0 0.00 0.87 0.87 99 1012.3
20260904164838 69 109 0.0 0.0 0.00 0.87 0.87 99 1013.4
20260904164333 69 105 0.0 0.0 0.00 0.87 0.87 99 1012.8
20260904163830 69 2 3.0 3.0 0.00 0.87 0.87 99 1013.1
20260904163329 69 77 0.0 1.0 0.05 0.87 0.87 99 1013.2
20260904162828 69 312 4.0 6.0 0.12 0.87 0.87 99 1012.9
20260904162324 69 232 1.0 2.0 0.12 0.86 0.86 99 1011.5
20260904161819 69 92 3.0 6.0 0.05 0.85 0.85 99 1012.0
20260904161319 69 86 1.0 2.0 0.12 0.85 0.85 99 1012.6
20260904160815 69 153 1.0 1.0 0.07 0.84 0.84 99 1012.7
20260904160310 69 155 0.0 0.0 0.07 0.83 0.83 99 1013.0
20260904155810 69 165 2.0 2.0 0.12 0.83 0.83 99 1013.1
20260904155307 69 172 1.0 1.0 0.05 0.82 0.82 99 1013.0
20260904154803 69 136 0.0 0.0 0.07 0.81 0.81 99 1012.9
20260904154258 69 152 2.0 3.0 0.07 0.81 0.81 99 1013.4
20260904153753 69 130 0.0 0.0 0.05 0.80 0.80 99 1013.2
20260904153249 69 157 0.0 0.0 0.05 0.80 0.80 99 1013.3
20260904152745 68 132 0.0 0.0 0.07 0.79 0.79 99 1013.2
20260904152240 68 128 0.0 0.0 0.07 0.79 0.79 99 1013.0
20260904151735 69 166 0.0 0.0 0.00 0.78 0.78 99 1013.4
20260904151233 68 196 1.0 2.0 0.00 0.78 0.78 99 1013.1
20260904150730 68 149 2.0 2.0 0.00 0.78 0.78 99 1013.0
20260904150225 68 158 1.0 3.0 0.00 0.78 0.78 99 1013.0
20260904145723 69 215 0.0 1.0 0.00 0.78 0.78 99 1013.1
20260904145219 69 116 1.0 2.0 0.00 0.78 0.78 99 1013.9
20260904144714 69 155 0.0 1.0 0.05 0.78 0.78 99 1014.0
20260904144210 69 156 1.0 1.0 0.05 0.78 0.78 99 1014.7
20260904143705 69 142 1.0 2.0 0.05 0.78 0.78 99 1014.7
20260904143202 69 123 0.0 0.0 0.00 0.77 0.77 99 1014.7
20260904142658 69 129 0.0 0.0 0.00 0.77 0.77 99 1014.7
20260904142154 69 145 0.0 0.0 0.00 0.77 0.77 99 1015.1
20260904141654 69 168 2.0 3.0 0.00 0.77 0.77 99 1014.8
20260904141149 69 135 0.0 0.0 0.00 0.77 0.77 99 1015.0
20260904140644 69 153 0.0 0.0 0.00 0.77 0.77 99 1014.7
20260904140139 69 136 0.0 0.0 0.00 0.77 0.77 99 1014.7
20260904135638 69 145 0.0 0.0 0.00 0.77 0.77 99 1014.6
20260904135134 69 130 0.0 0.0 0.00 0.77 0.77 99 1014.7
20260904134630 69 125 0.0 0.0 0.07 0.77 0.77 99 1014.7
20260904134129 69 131 0.0 0.0 0.07 0.77 0.77 99 1015.3
20260904133624 69 151 0.0 0.0 0.07 0.77 0.77 99 1015.0
20260904133120 69 127 0.0 0.0 0.05 0.76 0.76 99 1015.2
20260904132614 69 124 0.0 0.0 0.47 0.76 0.76 99 1015.5
20260904132109 69 126 0.0 0.0 0.59 0.76 0.76 99 1015.7
20260904131603 69 131 0.0 0.0 0.47 0.68 0.68 99 1015.9
20260904131059 69 75 1.0 2.0 0.90 0.66 0.66 99 1014.9
20260904130558 70 39 1.0 2.0 0.83 0.61 0.61 99 1015.2
20260904130053 70 5 4.0 5.0 0.42 0.50 0.50 99 1014.8
20260904125549 70 52 2.0 3.0 0.35 0.46 0.46 99 1014.3
20260904125044 70 31 3.0 3.0 0.24 0.43 0.43 99 1014.5
20260904124539 70 88 1.0 2.0 0.07 0.40 0.40 99 1014.9
20260904124035 70 349 1.0 1.0 0.05 0.39 0.39 99 1014.4
20260904123535 70 77 0.0 0.0 0.05 0.39 0.39 99 1014.1
20260904123031 70 122 0.0 0.0 0.00 0.38 0.38 99 1013.9
20260904122531 70 72 0.0 0.0 0.07 0.38 0.38 99 1014.8
20260904122026 70 122 0.0 0.0 0.07 0.38 0.38 99 1014.4
20260904121521 70 128 0.0 0.0 0.05 0.37 0.37 99 1014.1
20260904121017 70 122 0.0 0.0 0.05 0.37 0.37 99 1014.2
20260904120512 70 114 0.0 0.0 0.07 0.36 0.36 99 1014.3
20260904120002 70 89 0.0 1.0 0.12 0.36 0.36 99 1014.3
20260904115457 70 131 0.0 0.0 0.05 0.35 0.35 99 1014.7
20260904114956 70 136 0.0 0.0 0.07 0.34 0.34 99 1014.5
20260904114452 70 71 0.0 0.0 0.19 0.34 0.34 99 1014.5
20260904113947 70 133 0.0 0.0 0.24 0.33 0.33 99 1014.4
20260904113446 70 125 0.0 0.0 0.35 0.32 0.32 99 1014.2
20260904112940 70 130 0.0 0.0 1.02 0.29 0.29 99 1014.6
20260904112436 70 93 0.0 0.0 1.21 0.26 0.26 99 1014.5
20260904111932 70 142 2.0 5.0 0.78 0.18 0.18 99 1014.7
20260904111427 70 122 0.0 0.0 0.05 0.06 0.06 99 1013.8
20260904110923 70 205 0.0 0.0 0.07 0.05 0.05 99 1013.7
20260904110421 70 112 0.0 0.0 0.07 0.05 0.05 99 1013.2
20260904105917 70 127 0.0 0.0 0.05 0.04 0.04 99 1013.4
20260904105412 71 130 0.0 0.0 0.12 0.04 0.04 99 1013.2
20260904104907 71 127 0.0 0.0 0.12 0.03 0.03 98 1012.8
20260904104402 71 124 0.0 0.0 0.12 0.02 0.02 98 1013.2
20260904103859 71 121 0.0 0.0 0.07 0.01 0.01 98 1013.2
20260904103359 71 127 0.0 0.0 0.00 0.00 0.00 97 1012.9
20260904102855 71 111 0.0 0.0 0.00 0.00 0.00 98 1012.7
20260904102350 71 129 0.0 0.0 0.00 0.00 0.00 98 1012.5
20260904101846 71 124 0.0 0.0 0.00 0.00 0.00 98 1012.4
20260904101342 71 125 0.0 0.0 0.00 0.00 0.00 98 1011.9
20260904100837 71 126 0.0 0.0 0.00 0.00 0.00 98 1012.4
20260904100333 70 117 0.0 0.0 0.00 0.00 0.00 98 1012.5
20260904095828 70 133 0.0 0.0 0.00 0.00 0.00 98 1012.6
20260904095322 70 111 0.0 0.0 0.00 0.00 0.00 98 1012.2
20260904094818 70 127 0.0 0.0 0.00 0.00 0.00 98 1012.2
20260904094313 70 126 0.0 0.0 0.00 0.00 0.00 98 1012.4
20260904093809 70 132 0.0 0.0 0.00 0.00 0.00 98 1012.7
20260904093309 70 132 0.0 0.0 0.00 0.00 0.00 98 1012.4
20260904092803 71 139 0.0 0.0 0.00 0.00 0.00 98 1012.6
20260904092255 70 122 0.0 0.0 0.00 0.00 0.00 98 1012.4
20260904091751 70 128 0.0 0.0 0.00 0.00 0.00 98 1012.5
20260904091245 70 129 0.0 0.0 0.00 0.00 0.00 98 1012.7
20260904090741 71 158 0.0 0.0 0.00 0.00 0.00 98 1012.1
20260904090236 71 180 0.0 1.0 0.00 0.00 0.00 98 1011.8
20260904085731 71 125 0.0 0.0 0.00 0.00 0.00 98 1011.8